星链-11115 (STARLINK-11115)

导读

STARLINK-11115是美国SpaceX星链星座的成员,于2024年7月28日发射。星链项目旨在构建全球卫星互联网星座,为全球偏远地区、海洋空域等提供高速互联网接入服务。该卫星延续星链标准设计,承担低轨通信任务,进一步扩充星链星座规模,提升星座网络覆盖能力与服务容量。

基本信息
目录编号:
60305
目录名称:
STARLINK-11115
国际标识:
2024-133E
轨道中心:
EARTH
卫星名称:
星链-11115 (STARLINK-11115)
卫星全名:
星链-11115 (STARLINK-11115)
卫星状态:
在轨 (已飞行775 天)
发射日期:
2024-07-28 UTC
国别 :
美国 (US)
星等 :
--
该卫星已列入 空间交会检测服务 Space Conjunction Data Service (SCDS) ,当前飞行风险评估等级: 无高风险
轨道信息
数据来源 国际轨道数据
星历时间: 2026-09-10T18:54:16+0800
22小时前
查看轨道信息
半长轴: 6737.86km
偏心率: 0.000108
轨道倾角: 53.159°
近地点辐角 62.515°
升交点赤经 315.387°
平近点角 297.598°
近地点: 358.995km
远地点: 360.451km
周期: 91.737分钟
每日圈数: 15.697116
详细信息
卫星平台:
Starlink v2.0 mini
运营商:
太空探索技术公司
运营商所在国:
美国
制造商(研发单位):
太空探索技术公司
制造商所在国:
美国
使用方式:
暂无
卫星简介
星链(Starlink)计划是由太空探索技术公司(SpaceX)提出的一个巨型低轨卫星互联网星座项目,计划在2019年至2024年间在太空搭建由约1.2万颗卫星组成的“星链”网络,其中1584颗将部署在地球上空550千米处的近地轨道,并从2020年开始工作。该卫星仍在工作。
2D轨道图
3D轨道图
轨道高度分析图
轨道倾角分析图
轨道综合分析图
查看轨道综合分析图
交会数据列表
事件ID 空间交会对象 最接近时刻(TCA) 交会距离 交会风险概率(CRP) 交会风险指数(CRI) 操作
CDM_260911-053106-030506-206421
2026-09-11T
05:31:03+0000
1.664 km
极远距离
3.084337E-6 低风险 0.45
CDM_260911-074806-030506-206421
2026-09-11T
07:48:33+0000
2.018 km
极远距离
1.831174E-6 低风险 0.4
CDM_260911-125406-030506-177623
2026-09-11T
12:54:55+0000
2.517 km
极远距离
1.740445E-6 低风险 0.4
与全量物体交会距离演化趋势
与全量物体交会风险概率演化趋势